KA7IKB-2 Weather Reports


time (UTC)temp
C
wind
direction
speed
KPH
gust
KPH
rain 1hr
cm
rain 24hr
cm
rain mn
cm
humidity
%
barometer
mb
20240613035956 16 127 0.0 3.2 0.00 0.00 0.00 57 1018.6
20240613035450 16 127 0.0 4.8 0.00 0.00 0.00 57 1018.6
20240613035215 16 127 0.0 4.8 0.00 0.00 0.00 57 1018.6
20240613034437 16 175 0.0 1.6 0.00 0.00 0.00 56 1018.7
20240613034204 16 175 0.0 1.6 0.00 0.00 0.00 56 1018.6
20240613033426 16 175 0.0 4.8 0.00 0.00 0.00 56 1018.6
20240613032920 16 175 0.0 8.0 0.00 0.00 0.00 55 1018.5
20240613032411 17 175 0.0 4.8 0.00 0.00 0.00 56 1018.5
20240613032138 17 175 0.0 3.2 0.00 0.00 0.00 54 1018.5
20240613031401 17 175 0.0 6.4 0.00 0.00 0.00 54 1018.5
20240613030856 17 175 0.0 6.4 0.00 0.00 0.00 54 1018.6
20240613030347 17 175 0.0 3.2 0.00 0.00 0.00 53 1018.6
20240613030114 17 175 0.0 4.8 0.00 0.00 0.00 51 1018.6
20240613025337 17 175 0.0 4.8 0.00 0.00 0.00 52 1018.6
20240613024832 17 175 0.0 4.8 0.00 0.00 0.00 52 1018.6
20240613024326 18 175 0.0 1.6 0.00 0.00 0.00 50 1018.6
20240613023817 18 175 0.0 6.4 0.00 0.00 0.00 49 1018.6
20240613023545 18 175 0.0 6.4 0.00 0.00 0.00 49 1018.6
20240613022808 18 175 0.0 11.3 0.00 0.00 0.00 48 1018.6
20240613022532 18 241 0.0 11.3 0.00 0.00 0.00 46 1018.6
20240613021756 19 20 0.0 3.2 0.00 0.00 0.00 46 1018.6
20240613021249 20 349 0.0 3.2 0.00 0.00 0.00 47 1018.7
20240613020743 20 349 0.0 4.8 0.00 0.00 0.00 46 1018.7
20240613020237 20 355 0.0 4.8 0.00 0.00 0.00 47 1018.7
20240613015731 20 1 0.0 3.2 0.00 0.00 0.00 45 1018.7
20240613015228 21 1 0.0 3.2 0.00 0.00 0.00 46 1018.8
20240613014720 21 1 0.0 4.8 0.00 0.00 0.00 43 1018.9
20240613014213 21 353 0.0 6.4 0.00 0.00 0.00 43 1018.9
20240613013705 22 108 0.0 6.4 0.00 0.00 0.00 43 1019.0
20240613013203 22 108 0.0 1.6 0.00 0.00 0.00 43 1018.9
20240613012655 22 108 0.0 3.2 0.00 0.00 0.00 42 1018.9
20240613012147 22 108 0.0 3.2 0.00 0.00 0.00 42 1019.0
20240613011643 22 256 0.0 4.8 0.00 0.00 0.00 41 1019.0
20240613011138 22 235 0.0 4.8 0.00 0.00 0.00 41 1019.1
20240613010632 22 79 0.0 3.2 0.00 0.00 0.00 41 1019.2
20240613010125 22 27 0.0 6.4 0.00 0.00 0.00 40 1019.2
20240613005618 22 27 1.6 6.4 0.00 0.00 0.00 40 1019.2
20240613005114 22 39 1.6 11.3 0.00 0.00 0.00 38 1019.2
20240613004607 23 38 1.6 11.3 0.00 0.00 0.00 38 1019.2
20240613004102 23 46 0.0 4.8 0.00 0.00 0.00 40 1019.2
20240613003555 23 53 1.6 6.4 0.00 0.00 0.00 41 1019.3
20240613003050 23 59 1.6 6.4 0.00 0.00 0.00 40 1019.3
20240613002815 23 46 0.0 4.8 0.00 0.00 0.00 39 1019.3
20240613002038 23 35 1.6 8.0 0.00 0.00 0.00 38 1019.4
20240613001529 23 35 1.6 9.7 0.00 0.00 0.00 38 1019.5
20240613001025 23 36 1.6 9.7 0.00 0.00 0.00 38 1019.5
20240613000520 23 41 1.6 6.4 0.00 0.00 0.00 38 1019.6
20240613000013 23 24 1.6 6.4 0.00 0.00 0.00 40 1019.6
20240612235508 23 22 1.6 6.4 0.00 0.00 0.00 40 1019.7
20240612235001 23 25 1.6 6.4 0.00 0.00 0.00 39 1019.7
20240612234453 23 57 1.6 6.4 0.00 0.00 0.00 41 1019.7
20240612233949 23 31 0.0 6.4 0.00 0.00 0.00 42 1019.8
20240612233715 23 46 0.0 6.4 0.00 0.00 0.00 40 1019.8
20240612233208 23 263 1.6 8.0 0.00 0.00 0.00 43 1019.9
20240612232432 23 12 1.6 11.3 0.00 0.00 0.00 42 1019.9
20240612231925 23 57 0.0 4.8 0.00 0.00 0.00 40 1019.9
20240612231651 23 345 1.6 11.3 0.00 0.00 0.00 40 1020.0
20240612230914 23 49 1.6 11.3 0.00 0.00 0.00 42 1020.0
20240612230408 23 60 1.6 8.0 0.00 0.00 0.00 41 1020.1
20240612225901 23 33 1.6 8.0 0.00 0.00 0.00 40 1020.3
20240612225404 23 44 1.6 8.0 0.00 0.00 0.00 41 1020.4
20240612224852 23 37 1.6 8.0 0.00 0.00 0.00 40 1020.3
20240612224344 23 44 1.6 8.0 0.00 0.00 0.00 42 1020.4
20240612224110 23 38 1.6 8.0 0.00 0.00 0.00 42 1020.5
20240612223331 23 6 1.6 9.7 0.00 0.00 0.00 42 1020.5
20240612222826 23 124 1.6 9.7 0.00 0.00 0.00 43 1020.5
20240612222041 23 81 1.6 8.0 0.00 0.00 0.00 47 1020.7
20240612221308 23 123 1.6 6.4 0.00 0.00 0.00 46 1020.7
20240612220802 23 123 1.6 8.0 0.00 0.00 0.00 48 1020.8
20240612220256 22 126 1.6 8.0 0.00 0.00 0.00 45 1020.9
20240612215803 22 18 3.2 12.9 0.00 0.00 0.00 45 1020.9
20240612215244 22 25 1.6 12.9 0.00 0.00 0.00 45 1021.0
20240612214741 22 19 0.0 4.8 0.00 0.00 0.00 47 1021.0
20240612214231 22 33 1.6 8.0 0.00 0.00 0.00 46 1021.1
20240612213725 22 34 1.6 8.0 0.00 0.00 0.00 44 1021.1
20240612213216 22 31 1.6 6.4 0.00 0.00 0.00 47 1021.1
20240612212946 22 37 1.6 6.4 0.00 0.00 0.00 44 1021.2
20240612212207 22 53 1.6 6.4 0.00 0.00 0.00 46 1021.3
20240612211701 22 135 1.6 6.4 0.00 0.00 0.00 48 1021.3
20240612211156 21 28 1.6 12.9 0.00 0.00 0.00 50 1021.3
20240612210647 21 35 3.2 12.9 0.00 0.00 0.00 45 1021.4
20240612210144 21 7 3.2 11.3 0.00 0.00 0.00 45 1021.4
20240612205132 21 349 1.6 8.0 0.00 0.00 0.00 46 1021.4
20240612204631 21 35 3.2 9.7 0.00 0.00 0.00 46 1021.5
20240612204131 21 44 1.6 9.7 0.00 0.00 0.00 46 1021.6
20240612203131 21 20 3.2 9.7 0.00 0.00 0.00 51 1021.7
20240612202903 20 20 4.8 11.3 0.00 0.00 0.00 49 1021.6
20240612202130 20 41 4.8 11.3 0.00 0.00 0.00 47 1021.7
20240612201626 20 46 3.2 9.7 0.00 0.00 0.00 50 1021.7
20240612201126 20 71 3.2 11.3 0.00 0.00 0.00 48 1021.9
20240612200625 20 42 3.2 11.3 0.00 0.00 0.00 50 1021.9
20240612200126 20 71 1.6 9.7 0.00 0.00 0.00 50 1021.9
20240612195625 20 14 1.6 8.0 0.00 0.00 0.00 51 1021.9
20240612195125 20 50 1.6 9.7 0.00 0.00 0.00 52 1021.9
20240612194627 20 23 1.6 9.7 0.00 0.00 0.00 51 1021.9
20240612194125 19 29 3.2 16.1 0.00 0.00 0.00 55 1022.0
20240612193625 19 40 3.2 16.1 0.00 0.00 0.00 52 1022.1
20240612193126 19 39 3.2 9.7 0.00 0.00 0.00 53 1022.0
20240612192627 19 35 3.2 9.7 0.00 0.00 0.00 51 1022.2
20240612192119 19 48 1.6 9.7 0.00 0.00 0.00 55 1022.2
20240612191615 19 47 3.2 12.9 0.00 0.00 0.00 53 1022.3
20240612191108 18 31 3.2 12.9 0.00 0.00 0.00 53 1022.3
20240612190601 18 3 3.2 8.0 0.00 0.00 0.00 55 1022.3
20240612190055 18 98 3.2 11.3 0.00 0.00 0.00 54 1022.4
20240612185827 18 25 4.8 12.9 0.00 0.00 0.00 57 1022.5
20240612185046 18 22 4.8 12.9 0.00 0.00 0.00 56 1022.5
20240612184540 18 31 4.8 9.7 0.00 0.00 0.00 57 1022.5
20240612184033 17 341 4.8 11.3 0.00 0.00 0.00 56 1022.6
20240612183528 17 52 1.6 9.7 0.00 0.00 0.00 58 1022.6
20240612183021 17 35 1.6 8.0 0.00 0.00 0.00 60 1022.6
20240612182513 17 308 1.6 8.0 0.00 0.00 0.00 59 1022.7
20240612182240 17 358 3.2 8.0 0.00 0.00 0.00 59 1022.7
20240612181503 17 281 3.2 8.0 0.00 0.00 0.00 61 1022.7
20240612180958 17 324 3.2 17.7 0.00 0.00 0.00 60 1022.8
20240612180448 16 31 1.6 17.7 0.00 0.00 0.00 61 1022.8
20240612175945 16 39 1.6 12.9 0.00 0.00 0.00 59 1022.9
20240612175436 16 327 1.6 12.9 0.00 0.00 0.00 61 1023.0
20240612174933 16 15 1.6 11.3 0.00 0.00 0.00 65 1022.9
20240612174658 15 31 1.6 11.3 0.00 0.00 0.00 65 1023.0
20240612173922 15 28 1.6 8.0 0.00 0.00 0.00 63 1023.1
20240612173416 15 353 1.6 6.4 0.00 0.00 0.00 69 1023.1
20240612172909 14 63 1.6 6.4 0.00 0.00 0.00 69 1023.1
20240612172400 14 258 1.6 6.4 0.00 0.00 0.00 68 1023.1
20240612171857 13 34 0.0 4.8 0.00 0.00 0.00 67 1023.1
20240612171351 13 43 1.6 12.9 0.00 0.00 0.00 69 1023.1
20240612170842 13 41 1.6 12.9 0.00 0.00 0.00 69 1023.1
20240612165834 13 38 1.6 6.4 0.00 0.00 0.00 70 1023.2
20240612165327 13 38 1.6 11.3 0.00 0.00 0.00 70 1023.2
20240612165052 13 14 1.6 11.3 0.00 0.00 0.00 70 1023.2
20240612164315 13 114 1.6 6.4 0.00 0.00 0.00 70 1023.2
20240612163809 12 28 1.6 6.4 0.00 0.00 0.00 71 1023.2
20240612163303 12 39 0.0 6.4 0.00 0.00 0.00 72 1023.2
20240612162757 12 345 0.0 6.4 0.00 0.00 0.00 73 1023.2
20240612162252 12 10 0.0 3.2 0.00 0.00 0.00 72 1023.2
20240612161745 12 10 0.0 3.2 0.00 0.00 0.00 71 1023.2
20240612161239 13 10 1.6 11.3 0.00 0.00 0.00 71 1023.2
20240612161003 13 10 1.6 11.3 0.00 0.00 0.00 70 1023.1
20240612160227 13 41 1.6 8.0 0.00 0.00 0.00 70 1023.1
20240612155950 13 36 0.0 8.0 0.00 0.00 0.00 68 1023.1
20240612155215 13 51 0.0 8.0 0.00 0.00 0.00 69 1023.1
20240612154710 13 57 0.0 8.0 0.00 0.00 0.00 67 1023.1
20240612154203 13 37 0.0 4.8 0.00 0.00 0.00 67 1023.1
20240612153657 14 37 0.0 4.8 0.00 0.00 0.00 65 1023.1
20240612153151 15 31 1.6 6.4 0.00 0.00 0.00 65 1023.1
20240612152643 15 31 1.6 6.4 0.00 0.00 0.00 64 1023.0
20240612152421 15 33 1.6 8.0 0.00 0.00 0.00 67 1022.9
20240612151635 15 32 1.6 8.0 0.00 0.00 0.00 68 1022.9
20240612151128 14 29 3.2 8.0 0.00 0.00 0.00 69 1022.9
20240612150855 13 38 1.6 6.4 0.00 0.00 0.00 71 1022.8
20240612150347 13 51 1.6 6.4 0.00 0.00 0.00 72 1022.8
20240612145609 12 14 1.6 6.4 0.00 0.00 0.00 73 1022.8
20240612145104 12 33 1.6 6.4 0.00 0.00 0.00 75 1022.7
20240612144558 12 60 0.0 4.8 0.00 0.00 0.00 76 1022.8
20240612144051 11 119 0.0 4.8 0.00 0.00 0.00 77 1022.7
20240612143040 11 9 0.0 4.8 0.00 0.00 0.00 78 1022.7
20240612142533 11 9 0.0 6.4 0.00 0.00 0.00 78 1022.6
20240612142027 10 342 0.0 4.8 0.00 0.00 0.00 82 1022.7
20240612141521 10 336 0.0 6.4 0.00 0.00 0.00 83 1022.6
20240612141248 9 64 0.0 6.4 0.00 0.00 0.00 84 1022.6
20240612140509 9 333 0.0 4.8 0.00 0.00 0.00 85 1022.6
20240612140003 8 328 0.0 4.8 0.00 0.00 0.00 85 1022.6
20240612135457 8 295 0.0 4.8 0.00 0.00 0.00 86 1022.5
20240612134952 8 12 0.0 3.2 0.00 0.00 0.00 87 1022.6
20240612134446 8 41 0.0 1.6 0.00 0.00 0.00 87 1022.5
20240612133939 8 41 0.0 1.6 0.00 0.00 0.00 88 1022.5
20240612133433 8 42 0.0 0.0 0.00 0.00 0.00 88 1022.4
20240612133159 8 42 0.0 4.8 0.00 0.00 0.00 88 1022.4
20240612132420 7 42 0.0 4.8 0.00 0.00 0.00 88 1022.4
20240612131406 7 306 0.0 0.0 0.00 0.00 0.00 87 1022.3
20240612130903 7 306 0.0 0.0 0.00 0.00 0.00 87 1022.3
20240612130357 7 306 0.0 0.0 0.00 0.00 0.00 87 1022.2
20240612125851 7 306 0.0 0.0 0.00 0.00 0.00 87 1022.3
20240612125346 7 306 0.0 0.0 0.00 0.00 0.00 87 1022.2
20240612124839 7 306 0.0 0.0 0.00 0.00 0.00 87 1022.1
20240612124333 7 306 0.0 0.0 0.00 0.00 0.00 86 1022.1
20240612123828 7 306 0.0 0.0 0.00 0.00 0.00 86 1022.1
20240612123322 7 306 0.0 0.0 0.00 0.00 0.00 86 1022.1
20240612122815 7 306 0.0 0.0 0.00 0.00 0.00 86 1022.0
20240612122309 7 306 0.0 0.0 0.00 0.00 0.00 85 1022.0
20240612121803 7 306 0.0 0.0 0.00 0.00 0.00 86 1022.0
20240612121528 7 306 0.0 0.0 0.00 0.00 0.00 85 1021.9
20240612121022 7 306 0.0 0.0 0.00 0.00 0.00 85 1021.9
20240612120245 7 306 0.0 0.0 0.00 0.00 0.00 85 1021.9
20240612115737 7 306 0.0 0.0 0.00 0.00 0.00 85 1021.8
20240612115234 7 306 0.0 0.0 0.00 0.00 0.00 84 1021.8
20240612114728 7 306 0.0 0.0 0.00 0.00 0.00 84 1021.8
20240612114221 7 306 0.0 0.0 0.00 0.00 0.00 84 1021.8
20240612113716 7 306 0.0 0.0 0.00 0.00 0.00 84 1021.8
20240612113210 7 306 0.0 0.0 0.00 0.00 0.00 84 1021.7
20240612112701 7 306 0.0 0.0 0.00 0.00 0.00 84 1021.7
20240612112157 8 306 0.0 0.0 0.00 0.00 0.00 83 1021.7
20240612111923 8 306 0.0 0.0 0.00 0.00 0.00 83 1021.7
20240612111418 8 306 0.0 0.0 0.00 0.00 0.00 83 1021.7
20240612110639 8 306 0.0 0.0 0.00 0.00 0.00 83 1021.7
20240612110133 8 306 0.0 1.6 0.00 0.00 0.00 83 1021.7
20240612105627 8 306 0.0 3.2 0.00 0.00 0.00 83 1021.7
20240612105357 8 306 0.0 3.2 0.00 0.00 0.00 83 1021.8
20240612104625 8 306 0.0 3.2 0.00 0.00 0.00 83 1021.8
20240612104125 8 306 0.0 3.2 0.00 0.00 0.00 83 1021.8
20240612103624 8 14 0.0 3.2 0.00 0.00 0.00 83 1021.8
20240612103123 8 14 0.0 0.0 0.00 0.00 0.00 83 1021.7
20240612102628 8 14 0.0 0.0 0.00 0.00 0.00 82 1021.7
20240612102124 8 14 0.0 0.0 0.00 0.00 0.00 82 1021.8
20240612101119 8 14 0.0 1.6 0.00 0.00 0.00 82 1021.7
20240612100618 8 14 0.0 1.6 0.00 0.00 0.00 82 1021.7
20240612100348 8 14 0.0 1.6 0.00 0.00 0.00 82 1021.7
20240612095618 8 14 0.0 0.0 0.00 0.00 0.00 81 1021.7
20240612095117 8 14 0.0 0.0 0.00 0.00 0.00 81 1021.7
20240612094618 8 14 0.0 0.0 0.00 0.00 0.00 81 1021.7
20240612094347 8 14 0.0 0.0 0.00 0.00 0.00 81 1021.7
20240612093849 8 14 0.0 3.2 0.00 0.00 0.00 81 1021.7
20240612093110 8 14 0.0 3.2 0.00 0.00 0.00 81 1021.8
20240612092603 8 14 0.0 0.0 0.00 0.00 0.00 81 1021.9
20240612092330 8 14 0.0 1.6 0.00 0.00 0.00 81 1021.9
20240612091551 8 14 0.0 1.6 0.00 0.00 0.00 81 1021.9
20240612091044 8 14 0.0 3.2 0.00 0.00 0.00 80 1021.9
20240612090546 8 14 0.0 3.2 0.00 0.00 0.00 80 1021.9
20240612090043 8 14 0.0 3.2 0.00 0.00 0.00 80 1021.9
20240612085544 8 14 0.0 3.2 0.00 0.00 0.00 80 1021.9
20240612085042 8 14 0.0 0.0 0.00 0.00 0.00 80 1021.9
20240612084544 9 14 0.0 0.0 0.00 0.00 0.00 80 1021.9
20240612084309 9 14 0.0 3.2 0.00 0.00 0.00 80 1021.9
20240612083537 9 14 0.0 3.2 0.00 0.00 0.00 80 1021.9
20240612083037 9 14 0.0 0.0 0.00 0.00 0.00 80 1021.9
20240612082804 9 14 0.0 0.0 0.00 0.00 0.00 80 1021.9
20240612082036 9 14 0.0 0.0 0.00 0.00 0.00 79 1021.8
20240612081534 9 14 0.0 0.0 0.00 0.00 0.00 79 1021.9
20240612081035 9 14 0.0 0.0 0.00 0.00 0.00 79 1021.9
20240612080532 9 14 0.0 0.0 0.00 0.00 0.00 79 1021.9
20240612080257 9 14 0.0 0.0 0.00 0.00 0.00 79 1021.9
20240612075759 10 14 0.0 0.0 0.00 0.00 0.00 78 1022.0
20240612075027 10 14 0.0 0.0 0.00 0.00 0.00 78 1022.1
20240612074525 10 14 0.0 0.0 0.00 0.00 0.00 78 1022.1
20240612074023 10 14 0.0 0.0 0.00 0.00 0.00 78 1022.1
20240612073525 10 14 0.0 0.0 0.00 0.00 0.00 78 1022.2
20240612073020 10 14 0.0 3.2 0.00 0.00 0.00 79 1022.1
20240612072522 10 14 0.0 3.2 0.00 0.00 0.00 79 1022.1
20240612072020 10 16 0.0 1.6 0.00 0.00 0.00 80 1022.1
20240612071750 10 16 0.0 8.0 0.00 0.00 0.00 78 1022.1
20240612071019 10 16 0.0 8.0 0.00 0.00 0.00 78 1022.1
20240612070751 10 353 0.0 3.2 0.00 0.00 0.00 79 1022.1
20240612070020 10 353 0.0 3.2 0.00 0.00 0.00 79 1022.1
20240612065515 10 66 0.0 4.8 0.00 0.00 0.00 79 1022.1
20240612065015 11 66 0.0 6.4 0.00 0.00 0.00 78 1022.1
20240612064514 11 345 0.0 6.4 0.00 0.00 0.00 79 1022.0
20240612064011 11 129 0.0 6.4 0.00 0.00 0.00 79 1022.1
20240612063512 11 129 0.0 6.4 0.00 0.00 0.00 78 1022.0
20240612063008 11 129 0.0 0.0 0.00 0.00 0.00 78 1022.1
20240612062738 11 129 0.0 0.0 0.00 0.00 0.00 78 1022.1
20240612061504 11 129 0.0 1.6 0.00 0.00 0.00 77 1022.1
20240612061006 11 129 0.0 1.6 0.00 0.00 0.00 77 1022.0
20240612060502 11 129 0.0 0.0 0.00 0.00 0.00 77 1022.0
20240612060004 11 129 0.0 0.0 0.00 0.00 0.00 76 1021.9
20240612055455 11 129 0.0 0.0 0.00 0.00 0.00 76 1021.9
20240612055221 11 129 0.0 0.0 0.00 0.00 0.00 75 1021.9
20240612054446 11 129 0.0 0.0 0.00 0.00 0.00 75 1021.9
20240612053940 11 129 0.0 0.0 0.00 0.00 0.00 75 1021.8
20240612053433 11 129 0.0 0.0 0.00 0.00 0.00 74 1021.9
20240612052927 12 129 0.0 0.0 0.00 0.00 0.00 74 1021.7
20240612052421 12 129 0.0 0.0 0.00 0.00 0.00 73 1021.6
20240612051916 12 129 0.0 0.0 0.00 0.00 0.00 73 1021.5
20240612051410 12 129 0.0 3.2 0.00 0.00 0.00 73 1021.4
20240612050904 12 129 0.0 3.2 0.00 0.00 0.00 73 1021.4
20240612050358 12 129 0.0 0.0 0.00 0.00 0.00 72 1021.3
20240612045856 12 129 0.0 3.2 0.00 0.00 0.00 72 1021.2
20240612045342 12 129 0.0 3.2 0.00 0.00 0.00 72 1021.1
20240612044833 12 129 0.0 3.2 0.00 0.00 0.00 72 1021.1
20240612044331 12 129 0.0 3.2 0.00 0.00 0.00 71 1021.0
20240612043821 13 129 0.0 3.2 0.00 0.00 0.00 71 1020.8
20240612043317 13 128 0.0 12.9 0.00 0.00 0.00 71 1020.8
20240612042811 13 74 0.0 6.4 0.00 0.00 0.00 71 1020.7
20240612042305 13 291 0.0 1.6 0.00 0.00 0.00 70 1020.6
20240612041759 13 291 0.0 1.6 0.00 0.00 0.00 70 1020.5
20240612040745 13 291 0.0 3.2 0.00 0.00 0.00 69 1020.3